FW3572 Weather Reports


time (UTC)temp
C
wind
direction
speed
KPH
gust
KPH
rain 1hr
cm
rain 24hr
cm
rain mn
cm
humidity
%
barometer
mb
20260508190023 28 132 6.4 19.3 0.00 0.00 0.00 100 1015.7
20260508185524 28 123 6.4 12.9 0.00 0.00 0.00 100 1015.8
20260508185021 28 73 4.8 14.5 0.00 0.00 0.00 100 1016.0
20260508184544 28 27 3.2 14.5 0.00 0.00 0.00 100 1015.9
20260508184021 29 97 3.2 12.9 0.00 0.00 0.00 100 1016.0
20260508183522 28 46 4.8 14.5 0.00 0.00 0.00 100 1016.1
20260508183021 28 123 4.8 16.1 0.00 0.00 0.00 100 1016.0
20260508182521 28 104 8.0 17.7 0.00 0.00 0.00 100 1016.1
20260508182020 28 82 6.4 19.3 0.00 0.00 0.00 100 1016.1
20260508181538 28 112 3.2 16.1 0.00 0.00 0.00 100 1016.2
20260508181019 28 163 6.4 19.3 0.00 0.00 0.00 100 1016.2
20260508180519 28 94 6.4 19.3 0.00 0.00 0.00 100 1016.2
20260508180020 28 88 3.2 19.3 0.00 0.00 0.00 100 1016.2
20260508175519 29 90 4.8 14.5 0.00 0.00 0.00 100 1016.2
20260508175019 29 72 4.8 11.3 0.00 0.00 0.00 100 1016.3
20260508174519 28 26 3.2 12.9 0.00 0.00 0.00 100 1016.4
20260508174019 28 57 6.4 17.7 0.00 0.00 0.00 100 1016.4
20260508173518 29 109 6.4 17.7 0.00 0.00 0.00 100 1016.4
20260508173018 30 117 4.8 16.1 0.00 0.00 0.00 100 1016.4
20260508172517 30 25 4.8 14.5 0.00 0.00 0.00 100 1016.3
20260508172118 30 12 4.8 16.1 0.00 0.00 0.00 100 1016.4
20260508171517 29 31 3.2 16.1 0.00 0.00 0.00 100 1016.5
20260508171016 29 71 3.2 12.9 0.00 0.00 0.00 100 1016.5
20260508170518 29 149 4.8 12.9 0.00 0.00 0.00 100 1016.7
20260508170017 30 128 4.8 17.7 0.00 0.00 0.00 100 1016.8
20260508165517 29 355 6.4 17.7 0.00 0.00 0.00 100 1016.8
20260508165016 29 49 4.8 16.1 0.00 0.00 0.00 100 1016.9
20260508164516 30 128 4.8 16.1 0.00 0.00 0.00 100 1016.9
20260508164015 30 345 3.2 17.7 0.00 0.00 0.00 100 1016.8
20260508163513 30 36 4.8 17.7 0.00 0.00 0.00 100 1016.9
20260508163012 30 110 3.2 14.5 0.00 0.00 0.00 100 1016.9
20260508162512 29 157 3.2 17.7 0.00 0.00 0.00 100 1016.9
20260508162015 30 5 6.4 17.7 0.00 0.00 0.00 100 1017.1
20260508161512 29 337 3.2 19.3 0.00 0.00 0.00 100 1017.2
20260508161011 29 37 4.8 19.3 0.00 0.00 0.00 100 1017.2
20260508160510 28 232 4.8 19.3 0.00 0.00 0.00 100 1017.3
20260508160032 29 9 3.2 14.5 0.00 0.00 0.00 100 1017.3
20260508155510 29 26 3.2 14.5 0.00 0.00 0.00 100 1017.3
20260508155009 28 9 4.8 14.5 0.00 0.00 0.00 100 1017.3
20260508154512 29 116 1.6 11.3 0.00 0.00 0.00 100 1017.3
20260508154009 29 10 3.2 12.9 0.00 0.00 0.00 100 1017.4
20260508153510 28 34 3.2 12.9 0.00 0.00 0.00 100 1017.5
20260508153009 30 128 3.2 16.1 0.00 0.00 0.00 100 1017.4
20260508152508 30 350 3.2 16.1 0.00 0.00 0.00 100 1017.5
20260508152007 29 31 3.2 12.9 0.00 0.00 0.00 100 1017.4
20260508151511 28 73 1.6 12.9 0.00 0.00 0.00 100 1017.5
20260508151007 28 349 4.8 12.9 0.00 0.00 0.00 100 1017.5
20260508150505 28 355 1.6 12.9 0.00 0.00 0.00 100 1017.5
20260508150011 28 355 3.2 12.9 0.00 0.00 0.00 100 1017.6
20260508145505 29 322 0.0 9.7 0.00 0.00 0.00 100 1017.6
20260508145004 29 5 3.2 16.1 0.00 0.00 0.00 100 1017.5
20260508144504 29 11 8.0 16.1 0.00 0.00 0.00 100 1017.6
20260508144004 29 12 1.6 9.7 0.00 0.00 0.00 100 1017.6
20260508143503 28 332 3.2 9.7 0.00 0.00 0.00 100 1017.5
20260508143000 28 286 3.2 9.7 0.00 0.00 0.00 100 1017.6
20260508142559 28 319 1.6 12.9 0.00 0.00 0.00 100 1017.5
20260508142059 28 355 4.8 12.9 0.00 0.00 0.00 100 1017.6
20260508141607 28 321 3.2 9.7 0.00 0.00 0.00 100 1017.5
20260508141057 28 338 3.2 9.7 0.00 0.00 0.00 100 1017.6
20260508140555 27 318 1.6 14.5 0.00 0.00 0.00 100 1017.5
20260508140056 27 331 1.6 14.5 0.00 0.00 0.00 100 1017.6
20260508135555 27 337 3.2 9.7 0.00 0.00 0.00 100 1017.6
20260508135055 27 350 4.8 9.7 0.00 0.00 0.00 100 1017.5
20260508134558 27 307 3.2 8.0 0.00 0.00 0.00 100 1017.5
20260508134052 27 315 3.2 9.7 0.00 0.00 0.00 100 1017.5
20260508133550 27 315 3.2 14.5 0.00 0.00 0.00 100 1017.5
20260508133116 26 348 4.8 14.5 0.00 0.00 0.00 100 1017.5
20260508132547 26 319 3.2 9.7 0.00 0.00 0.00 100 1017.4
20260508132048 26 286 1.6 6.4 0.00 0.00 0.00 100 1017.4
20260508131548 26 11 1.6 6.4 0.00 0.00 0.00 100 1017.4
20260508131046 25 287 0.0 4.8 0.00 0.00 0.00 100 1017.5
20260508130543 25 265 0.0 4.8 0.00 0.00 0.00 100 1017.3
20260508130043 25 276 0.0 4.8 0.00 0.00 0.00 100 1017.3
20260508125544 25 252 0.0 3.2 0.00 0.00 0.00 100 1017.3
20260508125043 25 250 0.0 4.8 0.00 0.00 0.00 100 1017.4
20260508124543 24 265 0.0 4.8 0.00 0.00 0.00 100 1017.4
20260508124041 24 286 0.0 0.0 0.00 0.00 0.00 100 1017.4
20260508123541 23 295 0.0 0.0 0.00 0.00 0.00 100 1017.3
20260508123055 23 301 0.0 0.0 0.00 0.00 0.00 100 1017.3
20260508122541 23 300 0.0 3.2 0.00 0.00 0.00 100 1017.2
20260508122040 23 302 0.0 3.2 0.00 0.00 0.00 100 1017.2
20260508121540 23 304 0.0 3.2 0.00 0.00 0.00 100 1017.3
20260508121038 23 307 0.0 4.8 0.00 0.00 0.00 100 1017.3
20260508120537 22 306 0.0 4.8 0.00 0.00 0.00 100 1017.2
20260508120037 22 274 0.0 4.8 0.00 0.00 0.00 100 1017.2
20260508115538 22 273 0.0 4.8 0.00 0.00 0.00 100 1017.1
20260508115037 22 309 0.0 4.8 0.00 0.00 0.00 100 1017.0
20260508114536 22 298 0.0 3.2 0.00 0.00 0.00 100 1017.0
20260508114035 22 298 0.0 3.2 0.00 0.00 0.00 100 1016.8
20260508113535 21 296 0.0 4.8 0.00 0.00 0.00 100 1016.8
20260508113043 21 297 1.6 8.0 0.00 0.00 0.00 100 1016.8
20260508112534 21 298 1.6 8.0 0.00 0.00 0.00 100 1016.7
20260508112033 21 277 0.0 3.2 0.00 0.00 0.00 100 1016.6
20260508111535 21 277 0.0 3.2 0.00 0.00 0.00 100 1016.5
20260508111032 21 277 0.0 3.2 0.00 0.00 0.00 100 1016.5
20260508110531 21 277 0.0 1.6 0.00 0.00 0.00 100 1016.4
20260508110047 21 274 0.0 0.0 0.00 0.00 0.00 100 1016.3
20260508105530 21 275 0.0 0.0 0.00 0.00 0.00 100 1016.2
20260508105033 21 257 0.0 0.0 0.00 0.00 0.00 100 1016.2
20260508104530 21 250 0.0 0.0 0.00 0.00 0.00 100 1016.1
20260508104030 21 250 0.0 0.0 0.00 0.00 0.00 100 1016.1
20260508103530 21 248 0.0 0.0 0.00 0.00 0.00 100 1016.0
20260508103029 21 248 0.0 0.0 0.00 0.00 0.00 100 1015.8
20260508102530 21 248 0.0 0.0 0.00 0.00 0.00 100 1015.7
20260508102031 21 247 0.0 0.0 0.00 0.00 0.00 100 1015.6
20260508101530 21 246 0.0 0.0 0.00 0.00 0.00 100 1015.6
20260508101029 21 246 0.0 0.0 0.00 0.00 0.00 100 1015.5
20260508100529 21 246 0.0 0.0 0.00 0.00 0.00 100 1015.4
20260508100031 21 245 0.0 1.6 0.00 0.00 0.00 100 1015.4
20260508095529 21 245 0.0 1.6 0.00 0.00 0.00 100 1015.4
20260508095029 21 243 0.0 0.0 0.00 0.00 0.00 100 1015.3
20260508094528 21 243 0.0 0.0 0.00 0.00 0.00 100 1015.4
20260508094028 21 243 0.0 0.0 0.00 0.00 0.00 100 1015.3
20260508093529 21 243 0.0 0.0 0.00 0.00 0.00 100 1015.3
20260508093035 20 243 0.0 0.0 0.00 0.00 0.00 100 1015.4
20260508092529 20 243 0.0 4.8 0.00 0.00 0.00 100 1015.2
20260508092028 20 243 1.6 4.8 0.00 0.00 0.00 100 1015.3
20260508091529 20 243 1.6 4.8 0.00 0.00 0.00 100 1015.3
20260508091027 21 243 1.6 4.8 0.00 0.00 0.00 100 1015.3
20260508090527 21 241 0.0 0.0 0.00 0.00 0.00 100 1015.3
20260508090029 21 242 0.0 0.0 0.00 0.00 0.00 100 1015.2
20260508085526 21 242 0.0 0.0 0.00 0.00 0.00 100 1015.2
20260508085025 21 242 0.0 0.0 0.00 0.00 0.00 100 1015.3
20260508084526 21 241 0.0 0.0 0.00 0.00 0.00 100 1015.2
20260508084025 21 241 0.0 0.0 0.00 0.00 0.00 100 1015.2
20260508083524 21 241 0.0 0.0 0.00 0.00 0.00 100 1015.2
20260508083025 21 242 0.0 0.0 0.00 0.00 0.00 100 1015.2
20260508082527 21 241 0.0 0.0 0.00 0.00 0.00 100 1015.1
20260508082025 21 241 0.0 0.0 0.00 0.00 0.00 100 1015.2
20260508081523 21 240 0.0 0.0 0.00 0.00 0.00 100 1015.2
20260508081026 21 240 0.0 0.0 0.00 0.00 0.00 100 1015.2
20260508080526 21 240 0.0 3.2 0.00 0.00 0.00 100 1015.1
20260508080021 21 240 0.0 3.2 0.00 0.00 0.00 100 1015.3
20260508075523 21 240 0.0 3.2 0.00 0.00 0.00 100 1015.3
20260508075020 21 240 0.0 8.0 0.00 0.00 0.00 100 1015.3
20260508074522 21 240 3.2 8.0 0.00 0.00 0.00 100 1015.3
20260508074019 21 242 0.0 0.0 0.00 0.00 0.00 100 1015.3
20260508073519 21 242 0.0 0.0 0.00 0.00 0.00 100 1015.4
20260508073019 21 242 0.0 0.0 0.00 0.00 0.00 100 1015.3
20260508072518 22 242 0.0 0.0 0.00 0.00 0.00 100 1015.3
20260508072020 22 242 0.0 4.8 0.00 0.00 0.00 100 1015.3
20260508071520 22 241 1.6 4.8 0.00 0.00 0.00 100 1015.3
20260508071016 22 242 0.0 6.4 0.00 0.00 0.00 100 1015.4
20260508070516 22 240 0.0 6.4 0.00 0.00 0.00 100 1015.4
20260508070015 22 240 1.6 4.8 0.00 0.00 0.00 100 1015.4
20260508065518 22 240 0.0 4.8 0.00 0.00 0.00 100 1015.4
20260508065015 22 240 0.0 6.4 0.00 0.00 0.00 100 1015.4
20260508064515 22 240 0.0 0.0 0.00 0.00 0.00 100 1015.4
20260508064012 22 239 0.0 0.0 0.00 0.00 0.00 100 1015.6
20260508063512 22 240 0.0 0.0 0.00 0.00 0.00 100 1015.7
20260508063011 22 240 0.0 0.0 0.00 0.00 0.00 100 1015.6
20260508062510 22 240 0.0 0.0 0.00 0.00 0.00 100 1015.8
20260508062009 22 240 0.0 0.0 0.00 0.00 0.00 100 1015.7
20260508061510 23 239 0.0 0.0 0.00 0.00 0.00 100 1015.8
20260508061014 23 240 0.0 6.4 0.00 0.00 0.00 100 1015.8
20260508060508 23 239 0.0 6.4 0.00 0.00 0.00 100 1015.8
20260508060009 23 239 1.6 8.0 0.00 0.00 0.00 100 1016.0
20260508055508 23 240 1.6 6.4 0.00 0.00 0.00 100 1016.0
20260508055006 23 240 0.0 6.4 0.00 0.00 0.00 100 1016.1
20260508054506 23 235 1.6 8.0 0.00 0.00 0.00 100 1016.1
20260508054005 23 234 1.6 8.0 0.00 0.00 0.00 100 1016.1
20260508053504 23 234 1.6 6.4 0.00 0.00 0.00 100 1016.2
20260508053005 23 234 0.0 6.4 0.00 0.00 0.00 100 1016.2
20260508052505 23 234 0.0 6.4 0.00 0.00 0.00 100 1016.1
20260508052004 23 232 0.0 8.0 0.00 0.00 0.00 100 1016.2
20260508051504 23 240 1.6 8.0 0.00 0.00 0.00 100 1016.1
20260508051005 23 229 1.6 8.0 0.00 0.00 0.00 100 1016.0
20260508050505 23 240 1.6 8.0 0.00 0.00 0.00 100 1016.1
20260508050002 23 234 3.2 8.0 0.00 0.00 0.00 100 1016.1
20260508045502 23 213 1.6 6.4 0.00 0.00 0.00 100 1016.1
20260508045001 23 217 3.2 8.0 0.00 0.00 0.00 100 1016.2
20260508044602 23 246 1.6 8.0 0.00 0.00 0.00 100 1016.4
20260508044059 23 229 3.2 6.4 0.00 0.00 0.00 100 1016.2
20260508043601 23 237 1.6 6.4 0.00 0.00 0.00 100 1015.9
20260508043104 24 220 1.6 6.4 0.00 0.00 0.00 100 1015.9
20260508042558 24 228 3.2 6.4 0.00 0.00 0.00 100 1015.8
20260508042056 24 225 1.6 12.9 0.00 0.00 0.00 100 1015.8
20260508041616 24 234 1.6 6.4 0.00 0.00 0.00 100 1015.8
20260508041058 24 238 3.2 6.4 0.00 0.00 0.00 100 1015.8
20260508040555 24 241 1.6 6.4 0.00 0.00 0.00 100 1015.8
20260508040109 25 229 0.0 4.8 0.00 0.00 0.00 100 1015.8
20260508035554 25 229 1.6 6.4 0.00 0.00 0.00 100 1015.9
20260508035053 25 229 0.0 6.4 0.00 0.00 0.00 100 1015.9
20260508034553 25 216 1.6 6.4 0.00 0.00 0.00 100 1015.8
20260508034056 25 215 3.2 6.4 0.00 0.00 0.00 100 1015.8
20260508033553 25 229 1.6 6.4 0.00 0.00 0.00 100 1016.0
20260508033052 25 209 3.2 8.0 0.00 0.00 0.00 100 1015.9
20260508032554 25 214 1.6 6.4 0.00 0.00 0.00 100 1016.0
20260508032054 25 219 1.6 6.4 0.00 0.00 0.00 100 1015.8
20260508031556 25 240 1.6 8.0 0.00 0.00 0.00 100 1015.8
20260508031054 25 243 1.6 8.0 0.00 0.00 0.00 100 1015.7
20260508030551 25 240 3.2 6.4 0.00 0.00 0.00 100 1015.7
20260508030051 25 239 1.6 8.0 0.00 0.00 0.00 100 1015.7
20260508025550 25 214 3.2 8.0 0.00 0.00 0.00 100 1015.7
20260508025053 25 198 3.2 9.7 0.00 0.00 0.00 100 1015.6
20260508024604 26 172 3.2 9.7 0.00 0.00 0.00 100 1015.6
20260508024052 26 242 1.6 6.4 0.00 0.00 0.00 100 1015.6
20260508023550 26 182 3.2 6.4 0.00 0.00 0.00 100 1015.6
20260508023051 26 210 1.6 6.4 0.00 0.00 0.00 100 1015.7
20260508022553 26 192 1.6 9.7 0.00 0.00 0.00 100 1015.6
20260508022050 26 200 3.2 9.7 0.00 0.00 0.00 100 1015.5
20260508021550 26 191 1.6 6.4 0.00 0.00 0.00 100 1015.4
20260508021048 26 181 3.2 6.4 0.00 0.00 0.00 100 1015.4
20260508020550 26 193 3.2 11.3 0.00 0.00 0.00 100 1015.3
20260508020052 26 166 4.8 11.3 0.00 0.00 0.00 100 1015.2
20260508015549 26 163 6.4 14.5 0.00 0.00 0.00 100 1015.2
20260508015048 26 140 8.0 16.1 0.00 0.00 0.00 100 1015.2
20260508014548 26 159 6.4 17.7 0.00 0.00 0.00 100 1015.1
20260508014051 26 157 8.0 17.7 0.00 0.00 0.00 100 1015.1
20260508013548 26 163 4.8 16.1 0.00 0.00 0.00 100 1015.2
20260508013051 26 173 8.0 14.5 0.00 0.00 0.00 100 1015.1
20260508012551 26 159 1.6 17.7 0.00 0.00 0.00 100 1015.1
20260508012048 26 148 6.4 19.3 0.00 0.00 0.00 100 1015.1
20260508011555 26 187 11.3 19.3 0.00 0.00 0.00 100 1015.0
20260508011046 26 150 6.4 14.5 0.00 0.00 0.00 100 1015.0
20260508010548 26 165 6.4 17.7 0.00 0.00 0.00 100 1015.0
20260508010047 26 126 8.0 17.7 0.00 0.00 0.00 100 1015.0
20260508005549 26 198 6.4 19.3 0.00 0.00 0.00 100 1014.9
20260508005046 26 163 12.9 19.3 0.00 0.00 0.00 100 1014.9
20260508004549 26 163 8.0 17.7 0.00 0.00 0.00 100 1014.9
20260508004046 26 163 8.0 19.3 0.00 0.00 0.00 100 1014.8
20260508003545 26 160 6.4 19.3 0.00 0.00 0.00 100 1014.8
20260508003045 27 177 1.6 17.7 0.00 0.00 0.00 100 1014.8
20260508002548 26 180 8.0 20.9 0.00 0.00 0.00 100 1014.9
20260508002049 27 157 8.0 20.9 0.00 0.00 0.00 100 1015.0
20260508001548 27 163 8.0 22.5 0.00 0.00 0.00 100 1014.9
20260508001045 26 184 11.3 22.5 0.00 0.00 0.00 100 1014.9
20260508000545 26 150 11.3 22.5 0.00 0.00 0.00 100 1014.9
20260508000044 27 144 8.0 22.5 0.00 0.00 0.00 100 1015.0
20260507235544 27 150 8.0 20.9 0.00 0.00 0.00 100 1014.8
20260507235045 27 173 14.5 20.9 0.00 0.00 0.00 100 1014.8
20260507234646 27 161 8.0 25.7 0.00 0.00 0.00 100 1014.8
20260507234043 27 159 11.3 24.1 0.00 0.00 0.00 100 1014.8
20260507233543 27 165 11.3 24.1 0.00 0.00 0.00 100 1014.8
20260507233056 27 162 8.0 24.1 0.00 0.00 0.00 100 1014.7
20260507232543 27 175 8.0 24.1 0.00 0.00 0.00 100 1014.7
20260507232042 27 161 9.7 24.1 0.00 0.00 0.00 100 1014.8
20260507231543 27 168 11.3 25.7 0.00 0.00 0.00 100 1014.7
20260507231042 27 122 14.5 25.7 0.00 0.00 0.00 100 1014.7
20260507230544 27 118 9.7 22.5 0.00 0.00 0.00 100 1014.7
20260507230043 27 102 9.7 19.3 0.00 0.00 0.00 100 1014.8
20260507225542 27 145 8.0 22.5 0.00 0.00 0.00 100 1014.7
20260507225045 27 159 14.5 27.4 0.00 0.00 0.00 100 1014.7
20260507224553 27 157 16.1 27.4 0.00 0.00 0.00 100 1014.6
20260507224043 27 184 8.0 24.1 0.00 0.00 0.00 100 1014.7
20260507223546 27 126 9.7 20.9 0.00 0.00 0.00 100 1014.6
20260507223042 27 105 11.3 19.3 0.00 0.00 0.00 100 1014.6
20260507222542 27 148 9.7 25.7 0.00 0.00 0.00 100 1014.5
20260507222040 27 136 11.3 25.7 0.00 0.00 0.00 100 1014.6
20260507221542 27 163 14.5 24.1 0.00 0.00 0.00 100 1014.5
20260507221042 27 171 9.7 25.7 0.00 0.00 0.00 100 1014.5
20260507220539 27 134 11.3 25.7 0.00 0.00 0.00 100 1014.7
20260507220039 28 113 8.0 19.3 0.00 0.00 0.00 100 1014.6
20260507215541 28 150 11.3 20.9 0.00 0.00 0.00 100 1014.8
20260507215039 28 141 9.7 20.9 0.00 0.00 0.00 100 1014.7
20260507214540 28 109 6.4 20.9 0.00 0.00 0.00 100 1014.6
20260507214038 28 151 8.0 22.5 0.00 0.00 0.00 100 1014.7
20260507213539 27 137 12.9 22.5 0.00 0.00 0.00 100 1014.6
20260507213041 28 152 12.9 19.3 0.00 0.00 0.00 100 1014.6
20260507212541 28 164 9.7 24.1 0.00 0.00 0.00 100 1014.6
20260507212036 28 128 8.0 24.1 0.00 0.00 0.00 100 1014.6
20260507211537 28 136 8.0 22.5 0.00 0.00 0.00 100 1014.8
20260507211036 28 137 6.4 19.3 0.00 0.00 0.00 100 1014.8
20260507210535 28 121 3.2 19.3 0.00 0.00 0.00 100 1014.9
20260507210043 28 123 8.0 19.3 0.00 0.00 0.00 100 1014.8
20260507205534 28 137 6.4 19.3 0.00 0.00 0.00 100 1015.0
20260507205035 28 158 8.0 22.5 0.00 0.00 0.00 100 1015.0
20260507204533 28 114 8.0 22.5 0.00 0.00 0.00 100 1015.0
20260507204035 28 88 8.0 22.5 0.00 0.00 0.00 100 1015.0
20260507203532 28 147 9.7 20.9 0.00 0.00 0.00 100 1015.1
20260507203036 28 124 8.0 19.3 0.00 0.00 0.00 100 1015.1
20260507202531 28 110 8.0 19.3 0.00 0.00 0.00 100 1015.2
20260507202034 28 112 6.4 19.3 0.00 0.00 0.00 100 1015.3
20260507201531 28 121 9.7 19.3 0.00 0.00 0.00 100 1015.1
20260507201034 28 99 6.4 20.9 0.00 0.00 0.00 100 1015.1
20260507200532 28 146 11.3 20.9 0.00 0.00 0.00 100 1015.1
20260507200030 28 116 9.7 22.5 0.00 0.00 0.00 100 1015.1
20260507195529 28 130 9.7 20.9 0.00 0.00 0.00 100 1015.3
20260507195029 28 161 11.3 19.3 0.00 0.00 0.00 100 1015.3
20260507194550 28 129 11.3 19.3 0.00 0.00 0.00 100 1015.4
20260507194028 29 109 4.8 16.1 0.00 0.00 0.00 100 1015.5
20260507193527 28 140 4.8 16.1 0.00 0.00 0.00 100 1015.6
20260507193029 28 85 3.2 14.5 0.00 0.00 0.00 100 1015.8
20260507192528 29 127 4.8 20.9 0.00 0.00 0.00 100 1015.8
20260507192028 28 106 6.4 22.5 0.00 0.00 0.00 100 1015.6
20260507191533 28 66 6.4 22.5 0.00 0.00 0.00 100 1015.8
20260507191024 28 107 4.8 16.1 0.00 0.00 0.00 100 1015.9
20260507190524 28 152 8.0 16.1 0.00 0.00 0.00 100 1016.0